ZHONGXING-2E

Last updated on Thu Jul 03 2025 00:02:48 GMT+0000 (Coordinated Universal Time)

1 49062U 21071A 25183.61956740 -.00000283 00000+0 00000+0 0 9991 2 49062 0.0461 207.4714 0002606 304.7576 89.7449 1.00270024 14535
UTC large
Height (km)
Speed (km/s)
/
Latitude / Longitude
Inclination (degrees)
Orbital Period (minutes)
Azimuth
Elevation
Range (km)
Doppler Factor

Next 0 passes for location: London (51.5072 / 0.1276)

Sorry there are no passes over London.